Mandan, ND

5:30 AM CST on December 06, 2016 (GMT -0600)
Mandan

Weather History for KY19 - March, 2012

Change the Weather History Date:

Wednesday, March 7, 2012

  Actual Average (KBIS) Record (KBIS)
Temperature  
Mean Temperature 28 °F 26 °F  
Max Temperature 33 °F 36 °F 66 °F (1898)
Min Temperature 23 °F 16 °F -21 °F (1995)
Degree Days  
Heating Degree Days 37 39  
Month to date heating degree days 284  
Since 1 July heating degree days 6715  
Cooling Degree Days 0 0  
Month to date cooling degree days 0  
Year to date cooling degree days 0  
Moisture  
Dew Point 23 °F    
Average Humidity 85    
Maximum Humidity 100    
Minimum Humidity 64    
Precipitation  
Precipitation 0.67 in 0.03 in 0.17 in (1983)
Month to date precipitation 0.17  
Year to date precipitation 1.11  
Snow  
Snow 0.00 in 0.30 in 3.60 in (1983)
Month to date snowfall 2.2  
Since 1 July snowfall 39.7  
Snow Depth -    
Sea Level Pressure  
Sea Level Pressure 29.89 in    
Wind  
Wind Speed 17 mph (NW)    
Max Wind Speed 26 mph    
Max Gust Speed 34 mph    
Visibility 9 miles    
Events Rain , Snow    
T = Trace of Precipitation, MM = Missing Value Source: NWS Daily Summary

Daily Weather History Graph

Daily Weather History Graph

Search for Another Location

Airport or City:

Trip Planner

Search our weather history database for the weather conditions in past years. The results will help you decide how hot, cold, wet, or windy it might be!

Date:

Astronomy

Mar. 07, 2012 Rise Set
Actual Time 7:10 AM CST 6:38 PM CST
Civil Twilight 6:40 AM CST 7:09 PM CST
Nautical Twilight 6:05 AM CST 7:44 PM CST
Astronomical Twilight 5:30 AM CST 8:19 PM CST
Moon 6:19 PM CST (3/7) 6:22 AM CST (3/7)
Length of Visible Light 12h 28m
Length of Day
11h 27m
Waxing Gibbous, 99% of the Moon is Illuminated
Mar 7
Waxing Gibbous
Mar 8
Full
Mar 14
Last Quarter
Mar 22
New
Mar 30
First Quarter

Hourly Weather History & Observations

Time (CST) Temp. Windchill Dew Point Humidity Pressure Visibility Wind Dir Wind Speed Gust Speed Precip Events Conditions
12:15 AM 33.8 °F 21.9 °F 30.2 °F 87% 29.71 in 10.0 mi NW 21.9 mph 26.5 mph N/A   Overcast
12:35 AM 33.8 °F 22.8 °F 28.4 °F 81% 29.72 in 10.0 mi NW 18.4 mph 25.3 mph N/A   Overcast
12:55 AM 33.8 °F 23.2 °F 28.4 °F 81% 29.73 in 10.0 mi NW 17.3 mph 26.5 mph N/A   Overcast
1:15 AM 32.0 °F 20.5 °F 28.4 °F 87% 29.73 in 10.0 mi NW 18.4 mph 23.0 mph N/A   Overcast
1:35 AM 32.0 °F 20.8 °F 28.4 °F 87% 29.74 in 10.0 mi NW 17.3 mph 23.0 mph N/A   Overcast
1:55 AM 32.0 °F 20.8 °F 28.4 °F 87% 29.75 in 10.0 mi NW 17.3 mph 24.2 mph N/A   Overcast
2:15 AM 32.0 °F 19.8 °F 28.4 °F 87% 29.75 in 10.0 mi NW 20.7 mph 26.5 mph N/A   Overcast
2:35 AM 32.0 °F 20.1 °F 32.0 °F 100% 29.75 in 3.0 mi NW 19.6 mph 28.8 mph 0.05 in Snow Light Snow
2:55 AM 32.0 °F 19.5 °F 32.0 °F 100% 29.75 in 1.2 mi NNW 21.9 mph - 0.31 in Snow Light Snow
3:15 AM 28.4 °F 14.1 °F 28.4 °F 100% 29.75 in 1.5 mi NNW 24.2 mph 31.1 mph 0.19 in Snow Light Snow
3:55 AM 28.4 °F 15.1 °F 28.4 °F 100% 29.76 in 10.0 mi NW 20.7 mph 27.6 mph 0.30 in   Overcast
4:15 AM 28.4 °F 13.5 °F 28.4 °F 100% 29.76 in 10.0 mi NW 26.5 mph 34.5 mph N/A   Overcast
4:55 AM 26.6 °F 11.4 °F 26.6 °F 100% 29.79 in 10.0 mi NW 25.3 mph 33.4 mph N/A   Overcast
5:35 AM 24.8 °F 10.3 °F 24.8 °F 100% 29.82 in 10.0 mi NW 20.7 mph 32.2 mph N/A   Overcast
6:15 AM 24.8 °F 11.5 °F 24.8 °F 100% 29.84 in 10.0 mi NW 17.3 mph 25.3 mph N/A   Overcast
6:35 AM 24.8 °F 10.7 °F 24.8 °F 100% 29.85 in 10.0 mi NW 19.6 mph 25.3 mph N/A   Overcast
6:55 AM 24.8 °F 10.7 °F 24.8 °F 100% 29.85 in 10.0 mi NNW 19.6 mph 27.6 mph N/A   Overcast
7:15 AM 24.8 °F 10.7 °F 24.8 °F 100% 29.86 in 10.0 mi NNW 19.6 mph 26.5 mph N/A   Overcast
7:35 AM 24.8 °F 11.1 °F 23.0 °F 93% 29.86 in 10.0 mi NW 18.4 mph 27.6 mph N/A   Overcast
7:55 AM 24.8 °F 11.1 °F 23.0 °F 93% 29.87 in 5.0 mi NW 18.4 mph 26.5 mph N/A Snow Light Snow
8:15 AM 23.0 °F 10.1 °F 23.0 °F 100% 29.88 in 3.0 mi NNW 15.0 mph 18.4 mph 0.01 in Snow Light Snow
8:55 AM 23.0 °F 9.2 °F 23.0 °F 100% 29.90 in 3.0 mi NW 17.3 mph 25.3 mph 0.05 in Snow Light Snow
9:15 AM 23.0 °F 8.3 °F 21.2 °F 93% 29.91 in 7.0 mi NW 19.6 mph - N/A Snow Light Snow
9:35 AM 23.0 °F 8.7 °F 21.2 °F 93% 29.92 in 7.0 mi NW 18.4 mph 23.0 mph N/A Snow Light Snow
9:55 AM 23.0 °F 8.3 °F 21.2 °F 93% 29.92 in 10.0 mi NW 19.6 mph - 0.01 in Snow Light Snow
10:15 AM 23.0 °F 8.3 °F 19.4 °F 86% 29.93 in 10.0 mi NW 19.6 mph 27.6 mph N/A Rain Light Freezing Rain
10:35 AM 23.0 °F 8.7 °F 19.4 °F 86% 29.94 in 10.0 mi NNW 18.4 mph 24.2 mph N/A Rain Light Freezing Rain
10:55 AM 23.0 °F 8.0 °F 17.6 °F 80% 29.94 in 10.0 mi NW 20.7 mph 24.2 mph N/A   Mostly Cloudy
11:15 AM 23.0 °F 9.6 °F 17.6 °F 80% 29.95 in 10.0 mi NW 16.1 mph - N/A   Mostly Cloudy
11:35 AM 23.0 °F 9.2 °F 19.4 °F 86% 29.95 in 10.0 mi NW 17.3 mph 21.9 mph N/A Rain Light Freezing Rain
11:55 AM 23.0 °F 8.3 °F 19.4 °F 86% 29.95 in 10.0 mi NNW 19.6 mph 23.0 mph N/A   Overcast
12:15 PM 23.0 °F 9.6 °F 19.4 °F 86% 29.95 in 10.0 mi NNW 16.1 mph - N/A   Overcast
12:35 PM 24.8 °F 11.1 °F 19.4 °F 80% 29.95 in 10.0 mi NNW 18.4 mph 23.0 mph N/A   Overcast
12:55 PM 24.8 °F 12.4 °F 19.4 °F 80% 29.95 in 10.0 mi NW 15.0 mph 21.9 mph N/A   Overcast
1:15 PM 24.8 °F 11.1 °F 19.4 °F 80% 29.95 in 10.0 mi NNW 18.4 mph 23.0 mph N/A   Overcast
1:55 PM 26.6 °F 14.3 °F 21.2 °F 80% 29.93 in 10.0 mi NNW 16.1 mph - N/A   Mostly Cloudy
2:15 PM 28.4 °F 18.5 °F 23.0 °F 80% 29.93 in 10.0 mi NNW 11.5 mph 19.6 mph N/A   Partly Cloudy
2:35 PM 28.4 °F 18.0 °F 23.0 °F 80% 29.93 in 10.0 mi NW 12.7 mph 19.6 mph N/A   Partly Cloudy
2:55 PM 30.2 °F 21.9 °F 23.0 °F 75% 29.93 in 10.0 mi NNW 9.2 mph 16.1 mph N/A   Scattered Clouds
3:15 PM 28.4 °F 18.5 °F 21.2 °F 74% 29.94 in 10.0 mi NNW 11.5 mph - N/A   Mostly Cloudy
3:35 PM 30.2 °F 21.3 °F 21.2 °F 69% 29.95 in 10.0 mi NNW 10.4 mph - N/A   Scattered Clouds
3:55 PM 30.2 °F 22.6 °F 21.2 °F 69% 29.95 in 10.0 mi NW 8.1 mph - N/A   Partly Cloudy
4:15 PM 28.4 °F 19.7 °F 19.4 °F 69% 29.96 in 10.0 mi WNW 9.2 mph - N/A   Clear
4:35 PM 30.2 °F 21.9 °F 19.4 °F 64% 29.96 in 10.0 mi NW 9.2 mph - N/A   Clear
4:55 PM 30.2 °F 21.9 °F 19.4 °F 64% 29.96 in 10.0 mi WNW 9.2 mph - N/A   Partly Cloudy
5:15 PM 28.4 °F 21.2 °F 21.2 °F 74% 29.96 in 10.0 mi West 6.9 mph - N/A   Clear
5:35 PM 28.4 °F 22.2 °F 23.0 °F 80% 29.96 in 8.0 mi WNW 5.8 mph - N/A   Clear
5:55 PM 28.4 °F 22.2 °F 21.2 °F 74% 29.97 in 8.0 mi WNW 5.8 mph - N/A   Scattered Clouds
6:15 PM 28.4 °F 23.3 °F 23.0 °F 80% 29.97 in 10.0 mi WSW 4.6 mph - N/A   Scattered Clouds
6:35 PM 28.4 °F 24.6 °F 19.4 °F 69% 29.97 in 10.0 mi SSW 3.5 mph - N/A   Scattered Clouds
6:55 PM 26.6 °F 22.6 °F 23.0 °F 86% 29.98 in 10.0 mi SSW 3.5 mph - N/A   Mostly Cloudy
7:15 PM 26.6 °F 20.0 °F 23.0 °F 86% 29.99 in 10.0 mi SSW 5.8 mph - N/A   Overcast
7:35 PM 26.6 °F 18.2 °F 21.2 °F 80% 29.99 in 10.0 mi SSW 8.1 mph - N/A   Overcast
7:55 PM 28.4 °F 21.2 °F 23.0 °F 80% 30.00 in 10.0 mi SSW 6.9 mph - N/A   Overcast
8:15 PM 28.4 °F 20.4 °F 23.0 °F 80% 29.99 in 10.0 mi SSW 8.1 mph - N/A   Overcast
8:35 PM 28.4 °F 20.4 °F 23.0 °F 80% 30.00 in 10.0 mi SSW 8.1 mph - N/A   Overcast
8:55 PM 28.4 °F 19.1 °F 23.0 °F 80% 30.01 in 10.0 mi SW 10.4 mph - N/A   Overcast
9:15 PM 28.4 °F 17.0 °F 28.4 °F 100% 30.02 in 2.0 mi West 15.0 mph 23.0 mph 0.01 in Snow Light Snow
9:55 PM 26.6 °F 15.2 °F 26.6 °F 100% 30.02 in 10.0 mi West 13.8 mph - 0.10 in   Overcast
10:15 PM 26.6 °F 15.7 °F 26.6 °F 100% 30.03 in 10.0 mi West 12.7 mph - N/A   Overcast
10:35 PM 26.6 °F 13.8 °F 26.6 °F 100% 30.03 in 10.0 mi West 17.3 mph - N/A   Mostly Cloudy
10:55 PM 28.4 °F 16.6 °F 26.6 °F 93% 30.03 in 10.0 mi WNW 16.1 mph - N/A   Mostly Cloudy
11:15 PM 28.4 °F 15.4 °F 24.8 °F 86% 30.05 in 10.0 mi WNW 19.6 mph 23.0 mph N/A   Overcast
11:35 PM 28.4 °F 16.2 °F 23.0 °F 80% 30.05 in 10.0 mi WNW 17.3 mph - N/A   Overcast
11:55 PM 28.4 °F 15.4 °F 23.0 °F 80% 30.06 in 10.0 mi WNW 19.6 mph - N/A   Overcast